TimeCST,TemperatureF,Dew PointF,Humidity,Sea Level PressureIn,VisibilityMPH,Wind Direction,Wind SpeedMPH,Gust SpeedMPH,PrecipitationIn,Events,Conditions,WindDirDegrees,DateUTC
12:55 AM,40.6,29.1,64,29.99,10.0,ENE,5.8,-,N/A,,Clear,70,2012-11-26 06:55:00
1:55 AM,39.0,29.1,68,30.00,10.0,NE,4.6,-,N/A,,Clear,40,2012-11-26 07:55:00
2:55 AM,37.8,29.1,71,30.01,10.0,NNE,4.6,-,N/A,,Clear,30,2012-11-26 08:55:00
3:55 AM,36.7,29.7,76,30.01,10.0,NNE,5.8,-,N/A,,Clear,30,2012-11-26 09:55:00
4:55 AM,34.3,29.8,84,30.03,10.0,NNE,6.9,-,N/A,,Clear,30,2012-11-26 10:55:00
5:55 AM,34.3,29.8,84,30.04,10.0,NNE,8.1,-,N/A,,Clear,30,2012-11-26 11:55:00
6:55 AM,34.0,29.3,83,30.07,10.0,NNE,5.8,-,N/A,,Clear,30,2012-11-26 12:55:00
7:55 AM,34.7,29.1,80,30.10,10.0,NE,6.9,-,N/A,,Clear,40,2012-11-26 13:55:00
8:55 AM,37.6,29.8,74,30.12,10.0,NE,8.1,-,N/A,,Clear,40,2012-11-26 14:55:00
9:55 AM,40.5,30.6,68,30.14,10.0,NE,9.2,-,N/A,,Mostly Cloudy,40,2012-11-26 15:55:00
10:55 AM,43.3,31.3,62,30.14,10.0,NNE,10.4,-,N/A,,Mostly Cloudy,30,2012-11-26 16:55:00
11:55 AM,43.9,30.7,60,30.14,10.0,NNE,10.4,-,N/A,,Mostly Cloudy,20,2012-11-26 17:55:00
12:55 PM,45.0,30.6,57,30.13,10.0,NNE,11.5,-,N/A,,Overcast,20,2012-11-26 18:55:00
1:55 PM,44.4,29.7,56,30.15,10.0,North,11.5,-,N/A,,Overcast,10,2012-11-26 19:55:00
2:37 PM,44.6,28.4,53,30.15,10.0,North,12.7,21.9,N/A,Rain,Light Rain,10,2012-11-26 20:37:00
2:55 PM,43.9,24.8,47,30.17,10.0,North,13.8,-,0.00,,Light Drizzle,360,2012-11-26 20:55:00
3:04 PM,42.8,23.0,46,30.17,10.0,North,15.0,-,N/A,,Overcast,10,2012-11-26 21:04:00
3:55 PM,42.3,23.2,47,30.21,10.0,North,16.1,24.2,0.00,,Overcast,360,2012-11-26 21:55:00
4:55 PM,40.1,25.3,56,30.24,10.0,North,13.8,21.9,N/A,,Overcast,10,2012-11-26 22:55:00
5:55 PM,39.6,27.0,61,30.28,10.0,North,16.1,24.2,N/A,,Overcast,10,2012-11-26 23:55:00
6:55 PM,38.5,26.2,61,30.31,10.0,North,9.2,-,N/A,,Overcast,10,2012-11-27 00:55:00
7:55 PM,36.1,26.8,69,30.33,10.0,NNW,9.2,-,N/A,,Partly Cloudy,340,2012-11-27 01:55:00
8:55 PM,33.1,26.2,76,30.36,10.0,NNW,6.9,-,N/A,,Clear,340,2012-11-27 02:55:00
9:55 PM,31.1,25.7,80,30.38,10.0,NNW,5.8,-,N/A,,Clear,340,2012-11-27 03:55:00
10:55 PM,29.1,25.2,85,30.39,10.0,NNW,9.2,-,N/A,,Clear,330,2012-11-27 04:55:00
11:55 PM,27.5,23.4,84,30.40,10.0,North,8.1,-,N/A,,Clear,350,2012-11-27 05:55:00